�������l�o���
Date,Time,MP-1(��Sv/h),MP-2(��Sv/h),MP-3(��Sv/h),MP-4(��Sv/h),MP-5(��Sv/h),MP-6(��Sv/h),MP-7(��Sv/h),MP-8(��Sv/h),����,����(m/s),���J
2022/01/31,00:00,0.586,0.877,0.556,1.082,0.758,0.352,0.613,0.580,�k,5.6,��
2022/01/31,00:10,0.588,0.878,0.556,1.079,0.759,0.351,0.612,0.582,�k�k��,5.6,��
2022/01/31,00:20,0.587,0.879,0.556,1.080,0.759,0.352,0.614,0.580,�k�k��,4.1,��
2022/01/31,00:30,0.587,0.877,0.558,1.080,0.758,0.352,0.612,0.580,�k�k��,2.6,��
2022/01/31,00:40,0.587,0.877,0.556,1.080,0.758,0.352,0.613,0.579,�k��,3.8,��
2022/01/31,00:50,0.587,0.877,0.557,1.080,0.757,0.352,0.613,0.581,�k��,4.1,��
2022/01/31,01:00,0.586,0.878,0.555,1.078,0.758,0.352,0.614,0.582,�k�k��,3.8,��
2022/01/31,01:10,0.585,0.879,0.556,1.078,0.758,0.352,0.613,0.581,�k��,3.9,��
2022/01/31,01:20,0.586,0.877,0.555,1.077,0.758,0.350,0.611,0.581,�k��,3.3,��
2022/01/31,01:30,0.587,0.878,0.557,1.080,0.758,0.352,0.614,0.581,�k�k��,3.8,��
2022/01/31,01:40,0.587,0.877,0.555,1.077,0.757,0.352,0.612,0.581,�k��,4.9,��
2022/01/31,01:50,0.587,0.877,0.555,1.079,0.758,0.352,0.614,0.581,�k��,4.3,��
2022/01/31,02:00,0.587,0.878,0.555,1.081,0.759,0.351,0.614,0.579,�k�k��,4.4,��
2022/01/31,02:10,0.587,0.879,0.556,1.080,0.758,0.352,0.614,0.581,�k�k��,2.6,��
2022/01/31,02:20,0.586,0.878,0.556,1.079,0.755,0.351,0.612,0.580,�k�k��,2.8,��
2022/01/31,02:30,0.586,0.878,0.556,1.082,0.758,0.352,0.613,0.581,�k�k��,2.8,��
2022/01/31,02:40,0.585,0.880,0.556,1.082,0.757,0.352,0.613,0.581,�k��,2.3,��
2022/01/31,02:50,0.588,0.878,0.557,1.081,0.758,0.352,0.611,0.581,�k��,2.3,��
2022/01/31,03:00,0.585,0.878,0.557,1.081,0.759,0.352,0.613,0.581,�k��,2.5,��
2022/01/31,03:10,0.586,0.878,0.555,1.078,0.758,0.351,0.612,0.580,�k��,1.1,��
2022/01/31,03:20,0.587,0.877,0.555,1.078,0.757,0.351,0.613,0.583,�k�k��,2.3,��
2022/01/31,03:30,0.585,0.878,0.557,1.081,0.758,0.351,0.613,0.580,�k�k��,3.1,��
2022/01/31,03:40,0.585,0.876,0.555,1.081,0.757,0.352,0.613,0.580,�k�k��,3.4,��
2022/01/31,03:50,0.586,0.878,0.556,1.079,0.758,0.351,0.612,0.581,�k�k��,1.7,��
2022/01/31,04:00,0.585,0.876,0.555,1.080,0.758,0.353,0.612,0.581,���k��,1.4,��
2022/01/31,04:10,0.586,0.877,0.555,1.078,0.758,0.351,0.611,0.581,��,1.7,��
2022/01/31,04:20,0.587,0.878,0.559,1.079,0.759,0.350,0.612,0.580,�쐼,1.7,��
2022/01/31,04:30,0.586,0.876,0.556,1.080,0.757,0.352,0.614,0.580,�쐼,1.4,��
2022/01/31,04:40,0.585,0.877,0.557,1.078,0.757,0.352,0.612,0.581,��쐼,1.5,��
2022/01/31,04:50,0.587,0.878,0.554,1.078,0.757,0.352,0.612,0.580,���쐼,2.0,��
2022/01/31,05:00,0.587,0.878,0.556,1.078,0.754,0.351,0.612,0.579,��,2.0,��
2022/01/31,05:10,0.587,0.880,0.555,1.077,0.757,0.351,0.613,0.580,���k��,2.6,��
2022/01/31,05:20,0.585,0.877,0.555,1.079,0.756,0.351,0.613,0.581,�k��,1.7,��
2022/01/31,05:30,0.588,0.877,0.555,1.079,0.757,0.351,0.611,0.580,�k�k��,1.5,��
2022/01/31,05:40,0.586,0.879,0.556,1.079,0.758,0.351,0.612,0.580,�k�k��,1.2,��
2022/01/31,05:50,0.585,0.875,0.555,1.080,0.757,0.352,0.612,0.581,�k,1.9,��
2022/01/31,06:00,0.586,0.878,0.555,1.077,0.756,0.351,0.611,0.579,�k�k��,0.9,��
2022/01/31,06:10,0.586,0.876,0.556,1.079,0.756,0.352,0.612,0.580,�쐼,0.6,��
2022/01/31,06:20,0.586,0.875,0.557,1.079,0.755,0.352,0.612,0.580,���쐼,1.2,��
2022/01/31,06:30,0.586,0.876,0.555,1.080,0.755,0.350,0.611,0.579,�k��,1.4,��
2022/01/31,06:40,0.586,0.877,0.556,1.080,0.756,0.351,0.613,0.579,���k��,1.5,��
2022/01/31,06:50,0.586,0.876,0.555,1.079,0.754,0.350,0.613,0.579,�k��,2.0,��
2022/01/31,07:00,0.587,0.878,0.555,1.078,0.756,0.353,0.612,0.579,���k��,1.7,��
2022/01/31,07:10,0.586,0.876,0.555,1.078,0.755,0.351,0.612,0.580,���k��,2.6,��
2022/01/31,07:20,0.586,0.877,0.555,1.082,0.756,0.351,0.613,0.579,���k��,3.4,��
2022/01/31,07:30,0.586,0.879,0.556,1.080,0.757,0.352,0.613,0.579,���k��,3.1,��
2022/01/31,07:40,0.587,0.878,0.556,1.081,0.757,0.352,0.612,0.580,���k��,2.3,��
2022/01/31,07:50,0.588,0.877,0.556,1.079,0.756,0.351,0.612,0.580,���k��,2.2,��
2022/01/31,08:00,0.588,0.878,0.557,1.080,0.756,0.353,0.613,0.580,��,1.7,��
2022/01/31,08:10,0.587,0.877,0.557,1.080,0.757,0.351,0.612,0.581,���k��,2.0,��
2022/01/31,08:20,0.588,0.875,0.555,1.080,0.756,0.351,0.612,0.582,���k��,1.9,��
2022/01/31,08:30,0.587,0.873,0.556,1.080,0.755,0.352,0.613,0.580,���k��,1.1,��
2022/01/31,08:40,0.589,0.873,0.554,1.079,0.756,0.351,0.615,0.581,�k�k��,0.9,��
2022/01/31,08:50,0.588,0.872,0.555,1.079,0.756,0.350,0.613,0.580,�k�k��,1.5,��
2022/01/31,09:00,0.587,0.870,0.555,1.080,0.756,0.353,0.613,0.580,�k�k��,1.9,��
2022/01/31,09:10,0.588,0.872,0.557,1.080,0.758,0.352,0.613,0.580,�k�k��,2.8,��
2022/01/31,09:20,0.587,0.870,0.556,1.081,0.755,0.353,0.613,0.581,�k��,2.3,��
2022/01/31,09:30,0.588,0.871,0.556,1.080,0.757,0.351,0.614,0.580,��,1.5,��
2022/01/31,09:40,0.589,0.874,0.556,1.078,0.758,0.351,0.614,0.580,��쐼,2.0,��
2022/01/31,09:50,0.589,0.872,0.557,1.081,0.756,0.352,0.612,0.580,�쐼,1.2,��
2022/01/31,10:00,0.588,0.871,0.556,1.080,0.757,0.352,0.614,0.580,�k�k��,1.7,��
2022/01/31,10:10,0.589,0.870,0.556,1.080,0.756,0.354,0.613,0.579,���k��,1.9,��
2022/01/31,10:20,0.587,0.873,0.558,1.081,0.759,0.353,0.611,0.579,���k��,0.8,��
2022/01/31,10:30,0.589,0.871,0.557,1.079,0.757,0.352,0.611,0.578,�k�k��,1.7,��
2022/01/31,10:40,0.588,0.869,0.556,1.081,0.757,0.351,0.612,0.580,�k�k��,2.6,��
2022/01/31,10:50,0.589,0.871,0.556,1.080,0.758,0.352,0.612,0.580,�k�k��,5.7,��
2022/01/31,11:00,0.588,0.871,0.556,1.080,0.759,0.351,0.611,0.580,�k�k��,5.6,��
2022/01/31,11:10,0.589,0.874,0.555,1.080,0.759,0.351,0.611,0.581,�k�k��,6.7,��
2022/01/31,11:20,0.589,0.875,0.556,1.080,0.759,0.352,0.611,0.581,�k�k��,6.2,��
2022/01/31,11:30,0.588,0.873,0.557,1.082,0.758,0.352,0.612,0.581,�k�k��,5.1,��
2022/01/31,11:40,0.589,0.876,0.558,1.080,0.757,0.354,0.611,0.582,�k��,4.8,��
2022/01/31,11:50,0.590,0.879,0.556,1.083,0.760,0.352,0.612,0.582,���k��,4.3,��
2022/01/31,12:00,0.591,0.881,0.558,1.082,0.761,0.353,0.614,0.580,���k��,3.3,��
2022/01/31,12:10,0.591,0.881,0.557,1.081,0.760,0.352,0.614,0.582,��,2.3,��
2022/01/31,12:20,0.589,0.880,0.559,1.082,0.757,0.353,0.613,0.579,�k�k��,2.3,��
2022/01/31,12:30,0.589,0.881,0.558,1.083,0.761,0.352,0.614,0.581,���k��,3.5,��
2022/01/31,12:40,0.590,0.880,0.558,1.083,0.760,0.353,0.615,0.580,���k��,4.1,��
2022/01/31,12:50,0.589,0.880,0.558,1.081,0.760,0.353,0.613,0.581,��,4.3,��
2022/01/31,13:00,0.589,0.880,0.558,1.082,0.761,0.352,0.615,0.579,�k��,3.4,��
2022/01/31,13:10,0.587,0.880,0.558,1.082,0.761,0.354,0.616,0.580,�k�k��,3.5,�L
2022/01/31,13:20,0.590,0.879,0.558,1.084,0.760,0.354,0.615,0.582,�k�k��,3.8,�L
2022/01/31,13:30,0.591,0.879,0.558,1.082,0.762,0.352,0.615,0.581,�k�k��,3.6,��
2022/01/31,13:40,0.590,0.877,0.558,1.082,0.761,0.353,0.615,0.583,�k,3.0,��
2022/01/31,13:50,0.590,0.878,0.558,1.082,0.762,0.351,0.617,0.580,�k�k��,2.0,��
2022/01/31,14:00,0.591,0.880,0.557,1.082,0.760,0.353,0.615,0.582,�k�k��,2.0,��
2022/01/31,14:10,0.590,0.879,0.558,1.084,0.760,0.353,0.615,0.582,�k�k��,2.8,��
2022/01/31,14:20,0.589,0.879,0.558,1.082,0.760,0.352,0.616,0.582,�k�k��,2.8,��
2022/01/31,14:30,0.590,0.880,0.557,1.082,0.763,0.352,0.614,0.583,�k��,2.0,��
2022/01/31,14:40,0.590,0.879,0.557,1.084,0.761,0.352,0.615,0.582,�k�k��,2.0,�L
2022/01/31,14:50,0.590,0.882,0.558,1.081,0.761,0.353,0.614,0.582,�k�k��,6.1,��
2022/01/31,15:00,0.590,0.880,0.557,1.084,0.761,0.352,0.616,0.582,�k�k��,6.3,�L
2022/01/31,15:10,0.590,0.879,0.558,1.083,0.762,0.352,0.616,0.582,�k��,6.2,�L
2022/01/31,15:20,0.589,0.879,0.560,1.081,0.759,0.352,0.616,0.582,�k�k��,3.9,�L
2022/01/31,15:30,0.589,0.880,0.558,1.087,0.761,0.352,0.614,0.582,�k�k��,4.0,��
2022/01/31,15:40,0.590,0.879,0.559,1.084,0.760,0.352,0.615,0.581,�k�k��,3.5,��
2022/01/31,15:50,0.592,0.880,0.557,1.084,0.760,0.353,0.616,0.582,�k�k��,3.6,��
2022/01/31,16:00,0.590,0.880,0.559,1.083,0.760,0.352,0.614,0.582,�k�k��,4.1,��
2022/01/31,16:10,0.589,0.879,0.559,1.083,0.761,0.353,0.615,0.580,�k,4.4,��
2022/01/31,16:20,0.590,0.880,0.559,1.084,0.761,0.354,0.616,0.582,�k�k��,4.6,��
2022/01/31,16:30,0.589,0.879,0.558,1.083,0.760,0.352,0.615,0.581,�k�k��,3.7,��
2022/01/31,16:40,0.591,0.880,0.557,1.084,0.761,0.353,0.615,0.581,�k�k��,2.5,��
2022/01/31,16:50,0.588,0.880,0.558,1.082,0.762,0.354,0.614,0.582,�k�k��,2.6,��
2022/01/31,17:00,0.588,0.877,0.560,1.081,0.759,0.352,0.614,0.581,�k�k��,1.9,��
2022/01/31,17:10,0.588,0.880,0.557,1.082,0.760,0.353,0.616,0.580,�k�k��,1.7,��
2022/01/31,17:20,0.589,0.882,0.558,1.084,0.761,0.353,0.613,0.582,�k�k��,2.5,��
2022/01/31,17:30,0.587,0.880,0.557,1.084,0.759,0.352,0.615,0.581,�k�k��,2.9,��
2022/01/31,17:40,0.588,0.879,0.558,1.082,0.760,0.352,0.613,0.580,�k�k��,3.5,��
2022/01/31,17:50,0.589,0.881,0.558,1.080,0.760,0.352,0.614,0.581,�k�k��,2.9,��
2022/01/31,18:00,0.589,0.882,0.559,1.082,0.758,0.353,0.613,0.581,�k��,2.6,��
2022/01/31,18:10,0.589,0.878,0.556,1.082,0.760,0.352,0.612,0.580,�k�k��,2.6,��
2022/01/31,18:20,0.589,0.878,0.557,1.082,0.760,0.353,0.613,0.580,�k��,3.3,��
2022/01/31,18:30,0.589,0.881,0.558,1.082,0.760,0.352,0.613,0.580,�k�k��,2.5,��
2022/01/31,18:40,0.587,0.881,0.557,1.082,0.759,0.351,0.613,0.580,�k�k��,2.0,��
2022/01/31,18:50,0.589,0.878,0.559,1.082,0.758,0.352,0.613,0.580,�k�k��,1.9,��
2022/01/31,19:00,0.588,0.879,0.557,1.080,0.759,0.352,0.613,0.580,�k�k��,1.7,��
2022/01/31,19:10,0.587,0.878,0.556,1.081,0.759,0.353,0.612,0.581,�k��,2.0,��
2022/01/31,19:20,0.589,0.879,0.556,1.082,0.759,0.352,0.613,0.580,���k��,1.9,��
2022/01/31,19:30,0.590,0.880,0.555,1.083,0.759,0.351,0.613,0.582,���k��,2.0,��
2022/01/31,19:40,0.588,0.879,0.557,1.080,0.760,0.352,0.612,0.579,�k��,2.2,��
2022/01/31,19:50,0.587,0.879,0.556,1.080,0.760,0.352,0.613,0.581,�k��,3.5,��
2022/01/31,20:00,0.587,0.882,0.556,1.081,0.758,0.352,0.613,0.581,�k�k��,4.7,��
2022/01/31,20:10,0.589,0.880,0.556,1.082,0.758,0.351,0.613,0.581,�k�k��,4.5,��
2022/01/31,20:20,0.590,0.880,0.556,1.082,0.758,0.353,0.613,0.580,�k�k��,5.4,��
2022/01/31,20:30,0.587,0.879,0.557,1.081,0.758,0.352,0.614,0.581,�k��,6.2,��
2022/01/31,20:40,0.588,0.881,0.557,1.083,0.759,0.351,0.613,0.581,�k��,7.3,��
2022/01/31,20:50,0.587,0.879,0.557,1.080,0.759,0.352,0.613,0.580,�k��,6.9,��
2022/01/31,21:00,0.588,0.879,0.556,1.083,0.759,0.351,0.614,0.581,�k�k��,6.0,��
2022/01/31,21:10,0.589,0.880,0.556,1.081,0.761,0.352,0.613,0.580,�k��,4.7,��
2022/01/31,21:20,0.589,0.880,0.557,1.083,0.758,0.352,0.613,0.579,�k�k��,4.3,��
2022/01/31,21:30,0.586,0.879,0.555,1.080,0.757,0.352,0.613,0.583,�k�k��,4.9,��
2022/01/31,21:40,0.587,0.878,0.556,1.081,0.757,0.353,0.614,0.580,�k�k��,4.6,��
2022/01/31,21:50,0.588,0.879,0.558,1.079,0.758,0.352,0.613,0.581,�k�k��,3.5,��
2022/01/31,22:00,0.588,0.879,0.556,1.080,0.759,0.352,0.612,0.580,�k�k��,4.3,��
2022/01/31,22:10,0.588,0.877,0.555,1.084,0.758,0.351,0.612,0.581,�k�k��,5.6,��
2022/01/31,22:20,0.587,0.878,0.556,1.080,0.757,0.351,0.612,0.580,�k,6.0,��
2022/01/31,22:30,0.588,0.879,0.556,1.081,0.755,0.352,0.613,0.581,�k,6.1,��
2022/01/31,22:40,0.588,0.879,0.557,1.081,0.757,0.352,0.612,0.581,�k,5.3,��
2022/01/31,22:50,0.586,0.879,0.556,1.080,0.756,0.351,0.612,0.580,�k,4.2,��
2022/01/31,23:00,0.587,0.881,0.555,1.081,0.758,0.351,0.613,0.580,�k,4.9,��
2022/01/31,23:10,0.586,0.879,0.556,1.080,0.759,0.352,0.613,0.580,�k,4.3,��
2022/01/31,23:20,0.587,0.878,0.556,1.081,0.756,0.352,0.614,0.580,�k,3.8,��
2022/01/31,23:30,0.586,0.877,0.559,1.081,0.757,0.351,0.612,0.580,�k,5.1,��
2022/01/31,23:40,0.587,0.881,0.556,1.080,0.759,0.351,0.613,0.580,�k�k��,4.5,��
2022/01/31,23:50,0.586,0.878,0.557,1.080,0.757,0.351,0.614,0.580,�k,5.7,��
